Theta_e
338 345 349 350 348 346 345 344 343 345 344 343 342 340 340 343 342 342 342 340 340 338 338 338 338 336 336 335 335 334 333 333 335 334 335 336 336 336 338 337 337 333 337
341 346 347 350 349 347 346 344 344 345 344 342 341 340 340 341 341 340 340 340 338 338 339 339 336 337 334 334 334 333 332 332 331 333 335 337 338 337 337 339 339 336 338
342 346 348 348 349 348 346 344 343 344 344 343 341 340 339 338 339 337 336 339 338 336 339 337 336 336 333 335 334 333 332 331 333 333 333 332 334 335 338 338 338 339 338
344 345 347 345 349 348 345 344 343 343 343 343 341 340 339 338 338 336 336 337 336 336 338 334 335 334 335 336 334 332 332 332 332 331 332 334 333 336 338 338 336 336 335
345 346 346 345 348 347 345 344 343 342 342 341 343 341 338 338 337 336 336 337 336 336 337 334 335 336 335 335 335 333 332 331 329 332 333 334 333 335 337 336 335 334 334
343 345 343 345 347 346 344 343 342 342 340 343 341 340 339 337 337 335 337 338 338 335 334 333 334 335 335 334 334 333 332 331 329 332 331 332 335 334 337 336 335 333 334
341 343 344 343 345 345 344 343 342 341 340 340 338 342 339 337 336 335 335 336 336 334 334 333 334 334 333 333 333 333 331 330 329 329 329 331 333 333 334 335 335 333 332
339 342 343 337 339 341 342 342 341 341 340 339 338 343 339 337 336 335 334 335 334 334 334 334 334 332 332 331 330 331 329 328 327 327 327 330 334 334 333 333 334 333 332
339 341 342 341 339 335 337 338 339 340 338 338 337 340 339 337 337 336 335 335 332 333 333 332 332 331 330 329 328 327 326 326 327 327 325 327 331 331 332 332 333 333 332
336 338 340 340 340 340 340 332 333 335 335 335 333 333 332 333 333 333 330 333 333 333 332 332 332 330 329 327 326 325 323 322 327 326 326 325 328 329 330 330 330 331 331
333 336 338 338 338 338 338 334 330 330 331 331 329 326 324 328 329 330 327 331 333 333 333 331 331 330 329 325 323 323 320 323 323 324 325 322 326 328 328 329 330 329 330
330 333 335 336 337 336 336 336 335 334 334 333 330 329 327 327 326 326 323 325 329 330 332 332 332 330 327 326 323 319 321 321 321 322 322 321 326 328 329 328 329 329 330
332 332 334 334 335 336 336 334 333 333 333 332 329 327 326 325 326 326 326 326 327 324 330 331 331 330 327 325 323 322 322 323 323 322 321 320 325 328 329 330 329 330 331
331 332 333 334 332 334 335 334 333 331 330 329 329 327 325 324 324 324 324 325 324 327 327 327 327 327 326 324 322 321 321 322 323 323 321 318 322 327 329 330 331 331 331
328 331 332 333 332 333 332 333 332 332 330 330 327 327 325 324 323 323 323 323 324 324 324 325 324 324 323 322 321 320 320 321 322 322 322 316 319 325 328 330 331 332 332
327 329 332 332 333 333 332 331 331 332 331 330 328 326 325 324 323 322 322 322 323 323 324 323 323 321 320 319 319 319 320 321 322 322 322 322 319 322 326 329 331 332 332
326 328 329 331 333 332 332 331 331 331 331 329 328 327 325 323 323 323 322 321 321 322 322 321 321 320 319 319 318 320 320 321 321 321 321 322 321 318 321 326 328 330 331
326 326 328 330 331 332 332 331 330 330 331 329 328 328 326 324 323 322 322 321 322 321 320 319 319 318 317 317 317 318 318 319 319 320 320 321 320 320 319 322 325 328 329
324 326 326 328 329 331 332 332 330 329 329 330 329 327 327 325 324 323 322 323 322 321 320 319 318 317 317 318 317 318 318 318 318 318 319 319 320 320 320 319 319 321 326
317 323 326 327 328 329 331 330 330 328 327 328 328 328 328 327 325 324 324 323 321 321 321 319 319 318 318 318 316 316 317 317 317 317 318 318 319 319 319 319 321 318 317
310 316 321 324 326 327 327 326 326 325 326 326 326 327 327 327 326 325 325 323 322 322 322 320 320 318 317 316 315 316 316 318 317 318 319 318 317 317 318 318 319 320 320
308 312 318 323 325 326 327 327 327 327 327 327 327 326 326 326 326 326 325 324 323 322 321 320 319 318 317 315 317 312 311 312 313 314 315 315 316 317 317 318 318 319 320
305 307 310 318 324 326 327 326 325 323 321 322 324 323 324 325 325 324 325 325 323 323 322 320 319 318 318 315 317 317 309 306 309 314 314 315 315 316 317 318 317 318 319
305 306 307 313 321 325 327 325 324 323 322 323 323 324 323 323 324 324 324 324 324 322 322 322 321 320 318 317 312 315 319 312 309 308 312 315 316 316 318 318 318 319 319
304 307 307 314 320 324 325 326 324 323 325 325 324 322 321 321 323 323 323 323 323 323 322 322 321 319 320 319 317 313 313 315 314 311 308 311 313 316 318 318 320 319 320
301 308 315 317 319 323 324 325 324 323 323 323 323 322 321 321 320 321 321 322 322 322 322 322 321 320 319 319 319 318 315 312 311 311 309 310 310 314 317 318 319 319 321
Wind_Speed
6 8 12 15 16 14 14 13 13 11 12 13 12 13 14 14 15 14 16 12 12 15 15 16 16 17 17 17 16 16 16 15 16 15 13 17 14 14 14 13 10 10 13
10 8 11 14 15 14 12 12 11 10 12 13 13 14 14 14 15 15 13 13 11 14 15 15 14 15 15 16 15 14 14 12 14 11 11 11 13 14 13 14 10 10 12
12 10 12 12 12 13 13 11 11 10 11 14 13 14 14 14 14 15 13 13 12 13 14 14 13 14 13 15 14 13 12 12 13 11 10 5 10 12 12 15 18 19 18
11 11 11 11 12 13 12 11 10 9 11 12 13 12 14 14 14 15 14 13 13 13 14 12 13 13 14 15 13 12 11 10 10 9 7 8 9 11 13 16 16 17 16
9 8 9 10 11 12 12 10 8 8 7 10 14 14 12 14 14 12 13 12 13 13 13 11 12 13 12 13 10 10 9 9 9 7 7 7 6 10 11 13 14 16 15
10 9 10 11 11 11 12 9 7 6 5 6 10 12 13 12 13 12 11 10 11 12 12 11 10 10 12 10 8 8 8 8 6 6 6 7 7 9 10 12 13 13 12
10 8 10 9 10 11 11 11 9 6 4 1 8 11 13 12 11 12 11 10 12 11 11 10 10 8 9 9 8 8 7 8 5 5 5 5 6 8 9 9 11 12 11
11 9 8 8 8 9 10 10 10 8 5 3 8 9 13 11 10 10 10 10 11 10 10 10 8 7 7 8 8 7 5 6 4 4 4 4 10 8 8 7 8 9 10
9 9 8 8 7 7 8 9 9 8 8 6 1 8 10 12 10 9 6 6 8 9 9 8 7 6 6 6 6 6 5 5 3 1 3 2 7 6 6 6 7 6 8
9 9 8 7 8 7 6 7 7 8 7 6 4 9 8 7 9 10 7 4 6 8 8 7 6 5 4 4 4 4 4 4 1 1 1 2 6 4 4 4 4 4 4
7 8 7 8 7 7 7 7 6 7 7 7 6 7 8 5 6 8 6 6 6 5 7 7 5 3 2 2 2 2 1 0 0 2 2 4 6 4 3 2 2 2 1
12 10 8 8 9 8 6 7 7 6 5 5 5 5 3 4 5 5 6 5 4 7 6 6 6 4 2 1 1 1 1 1 2 3 3 6 8 7 5 3 1 2 3
13 9 11 9 9 10 8 6 4 4 4 4 5 5 5 4 3 3 2 2 2 3 3 3 3 3 4 3 3 3 2 3 3 3 4 7 8 8 7 6 4 5 6
10 12 12 11 10 10 7 6 7 6 5 5 6 7 5 4 4 4 3 3 3 2 4 3 3 3 4 4 5 5 5 4 3 3 5 8 9 10 10 9 8 7 8
10 11 12 11 11 10 10 7 7 8 7 7 7 8 6 6 6 5 5 4 4 3 3 4 4 4 5 5 6 6 6 6 6 4 4 8 10 11 12 12 11 10 10
10 11 11 12 11 10 11 12 9 8 9 7 7 8 10 7 6 6 6 6 5 5 4 4 5 5 5 5 7 7 8 7 7 7 6 6 10 12 13 13 13 13 12
11 10 12 13 12 13 13 11 9 9 9 8 9 11 11 9 9 8 6 6 6 6 6 5 5 5 6 6 8 8 8 9 8 9 8 7 7 11 13 14 14 15 14
10 11 11 10 13 14 13 10 8 8 9 9 8 9 12 12 11 9 7 8 7 6 6 6 6 6 6 6 7 8 7 8 10 10 9 8 8 7 9 15 15 15 15
11 11 11 12 14 14 13 10 11 11 9 9 9 9 12 12 12 10 8 8 8 7 7 7 6 6 6 7 7 8 8 8 10 9 12 12 12 10 7 10 13 14 15
9 10 11 10 13 14 9 9 7 8 8 8 9 9 12 10 13 11 9 9 8 8 7 7 8 6 7 7 7 9 9 9 8 10 12 10 11 12 10 10 8 8 15
8 10 11 10 12 9 7 8 8 10 8 8 8 12 12 11 13 12 9 9 9 9 10 10 7 9 7 5 6 6 8 11 12 10 9 9 10 10 11 9 7 7 7
8 6 7 11 11 11 9 8 6 7 8 9 8 10 12 12 12 11 11 10 11 9 10 10 9 5 5 6 5 2 6 3 3 6 7 8 11 7 9 11 10 11 10
7 8 8 12 13 13 14 6 4 3 1 5 8 8 9 11 10 12 12 10 11 10 9 10 11 12 9 5 11 6 3 5 3 2 4 5 6 6 7 9 10 11 11
8 7 8 9 12 12 13 10 12 9 9 6 5 5 7 10 12 12 12 11 11 8 11 10 10 12 9 10 4 9 10 4 5 7 2 3 6 7 8 7 8 10 11
7 7 6 6 8 8 10 12 8 10 6 3 3 6 7 8 11 11 12 11 11 9 11 11 10 12 10 10 9 5 9 9 10 10 12 7 5 7 7 8 8 8 11
8 8 5 1 1 4 7 9 9 10 7 4 4 4 5 6 7 10 10 10 11 11 12 11 12 12 12 11 9 9 9 6 6 9 11 13 12 9 8 9 10 9 9
Wind_Direction
180 162 149 147 138 136 131 126 122 124 127 120 116 108 102 98 94 85 95 96 84 92 94 87 84 90 83 80 79 75 68 67 69 63 57 61 62 60 53 42 40 52 45
154 160 152 149 141 140 131 126 127 127 135 126 119 116 115 117 107 103 99 100 102 104 96 92 92 87 91 87 84 84 90 88 77 70 45 66 56 52 50 46 74 65 54
151 153 153 149 148 142 136 129 137 138 128 130 123 122 119 122 115 115 117 123 114 110 107 98 92 94 96 96 87 88 90 81 56 31 14 45 62 52 59 59 58 53 51
152 155 158 151 153 146 139 137 144 145 142 133 135 128 126 129 118 125 126 121 121 118 112 110 97 91 84 103 94 93 90 73 60 29 31 52 51 58 68 60 57 57 52
147 151 155 152 151 147 137 141 151 151 165 152 143 128 129 124 130 126 131 131 127 126 119 121 105 95 86 77 101 99 90 73 58 49 38 39 44 60 76 73 66 62 56
150 151 154 149 152 143 139 141 148 157 147 159 131 142 135 134 134 138 140 135 132 132 130 128 116 90 88 79 87 118 95 80 60 54 43 22 32 66 65 71 71 69 59
159 158 161 159 152 148 147 151 159 162 172 136 150 163 138 140 140 144 144 140 129 135 131 133 122 108 95 87 83 116 99 84 63 53 39 15 27 53 64 63 75 69 59
165 164 168 165 160 156 158 158 159 164 167 159 161 150 144 146 148 153 152 151 140 136 135 132 131 121 107 94 83 97 102 93 74 53 32 7 358 58 58 59 73 75 68
170 172 173 175 174 166 165 164 166 172 181 171 176 153 145 150 152 151 155 154 152 143 144 143 139 134 125 111 95 82 85 113 82 51 20 358 346 40 52 53 54 71 79
174 184 185 184 179 178 178 174 174 178 186 177 139 140 141 148 152 154 156 151 163 157 155 158 157 153 142 122 105 82 86 92 112 301 329 320 328 3 46 52 32 35 81
190 192 190 190 193 186 181 184 188 185 186 186 163 147 124 141 152 158 160 190 179 161 165 170 179 174 141 99 73 52 108 83 275 279 276 289 305 320 344 18 35 4 37
201 198 190 195 199 188 190 183 193 192 203 193 191 174 161 163 171 178 170 187 227 187 179 185 193 186 173 252 268 272 224 262 273 275 275 284 292 288 295 296 311 293 275
203 199 197 196 197 195 195 184 192 197 189 201 204 202 184 178 189 193 207 197 195 195 206 205 205 203 216 235 259 262 260 275 279 276 273 278 284 284 274 280 276 278 267
209 217 212 203 201 198 193 198 194 192 199 199 202 197 196 198 201 208 211 225 219 212 220 231 241 243 242 240 244 257 259 267 270 270 272 270 279 279 271 267 267 263 270
220 211 213 208 207 199 194 197 200 207 201 209 204 199 195 205 210 210 218 215 222 221 237 249 259 260 259 258 257 257 260 260 262 260 264 257 264 265 266 264 259 259 259
226 222 212 204 208 203 206 205 204 205 210 206 208 209 203 201 207 214 221 221 224 217 225 244 258 266 269 271 271 262 263 267 268 266 266 266 249 258 258 260 260 254 256
226 223 206 207 204 203 211 208 204 206 207 209 216 208 202 203 210 211 219 225 225 217 226 231 247 254 265 267 270 273 272 269 267 263 259 257 259 245 248 251 252 255 251
239 219 215 204 204 209 210 204 208 210 208 213 208 208 207 206 204 208 214 221 223 222 222 221 225 243 251 253 263 267 269 272 272 267 264 259 251 252 239 243 243 247 246
235 241 224 208 210 210 212 205 205 207 210 215 212 210 210 205 203 210 217 223 215 222 222 225 233 220 237 250 253 263 263 263 260 260 261 256 251 245 244 236 233 236 240
227 231 235 217 216 212 208 208 206 208 214 217 215 217 210 205 206 210 217 217 210 222 231 228 233 232 242 254 268 268 263 256 251 246 251 248 246 242 239 238 236 234 230
243 230 222 221 218 202 197 199 214 218 212 215 216 216 214 214 207 207 215 217 215 223 229 222 230 239 243 228 271 268 260 252 250 245 244 243 241 240 240 233 227 230 232
254 234 221 222 216 206 207 208 205 196 217 215 210 214 215 214 211 209 212 214 213 221 225 217 216 235 252 188 238 263 299 292 255 247 246 239 244 239 243 238 230 230 230
258 249 234 226 217 208 206 191 183 174 118 189 210 213 211 212 217 219 219 217 211 211 225 216 209 211 237 212 214 225 261 248 315 219 232 227 233 225 234 239 227 228 229
278 268 253 237 219 214 191 191 200 209 222 223 217 197 197 202 215 216 224 221 223 214 222 219 211 216 215 233 196 230 245 270 274 301 237 252 229 236 238 229 231 225 223
323 294 260 239 217 202 190 200 196 212 227 201 183 182 198 202 217 221 221 224 228 227 233 233 221 215 214 231 220 194 224 238 245 247 280 263 247 245 242 237 226 221 216
359 0 12 22 280 190 181 194 191 207 202 185 194 204 204 209 216 224 220 222 227 227 232 228 228 223 221 228 237 232 225 219 220 223 239 262 265 255 231 230 232 225 226